| time (UTC) | temp C | wind direction | speed KPH | gust KPH | rain 1hr cm | rain 24hr cm | rain mn cm | humidity % | barometer mb |
| 20260905182817 | 32 | 360 | 1.6 | 6.4 | 0.03 | 0.28 | 0.13 | 63 | 1013.0 |
| 20260905182310 | 32 | 16 | 0.0 | 3.2 | 0.03 | 0.28 | 0.13 | 65 | 1013.1 |
| 20260905181806 | 32 | 26 | 0.0 | 4.8 | 0.03 | 0.28 | 0.13 | 65 | 1013.1 |
| 20260905181303 | 32 | 341 | 0.0 | 3.2 | 0.03 | 0.28 | 0.13 | 65 | 1013.2 |
| 20260905180758 | 32 | 335 | 0.0 | 3.2 | 0.03 | 0.28 | 0.13 | 65 | 1013.2 |
| 20260905180315 | 32 | 313 | 0.0 | 11.3 | 0.03 | 0.28 | 0.13 | 67 | 1013.2 |
| 20260905175813 | 31 | 296 | 0.0 | 4.8 | 0.03 | 0.28 | 0.13 | 67 | 1013.2 |
| 20260905175307 | 31 | 98 | 1.6 | 4.8 | 0.03 | 0.28 | 0.13 | 65 | 1013.3 |
| 20260905174822 | 31 | 107 | 0.0 | 1.6 | 0.03 | 0.28 | 0.13 | 71 | 1013.4 |
| 20260905174314 | 30 | 143 | 0.0 | 3.2 | 0.00 | 0.25 | 0.10 | 71 | 1013.4 |
| 20260905173809 | 30 | 134 | 0.0 | 3.2 | 0.00 | 0.25 | 0.10 | 71 | 1013.4 |
| 20260905173306 | 30 | 143 | 0.0 | 4.8 | 0.00 | 0.25 | 0.10 | 71 | 1013.5 |
| 20260905172803 | 29 | 227 | 0.0 | 4.8 | 0.00 | 0.25 | 0.10 | 75 | 1013.5 |
| 20260905172301 | 28 | 175 | 0.0 | 3.2 | 0.00 | 0.25 | 0.10 | 76 | 1013.5 |
| 20260905171816 | 28 | 181 | 0.0 | 3.2 | 0.00 | 0.28 | 0.10 | 77 | 1013.5 |
| 20260905171313 | 27 | 181 | 0.0 | 4.8 | 0.00 | 0.28 | 0.10 | 77 | 1013.8 |
| 20260905170830 | 27 | 214 | 0.0 | 0.0 | 0.00 | 0.28 | 0.10 | 78 | 1013.8 |
| 20260905170326 | 27 | 214 | 0.0 | 1.6 | 0.00 | 0.28 | 0.10 | 78 | 1013.9 |
| 20260905165801 | 27 | 214 | 0.0 | 1.6 | 0.00 | 0.28 | 0.10 | 79 | 1014.0 |
| 20260905165258 | 27 | 214 | 0.0 | 8.0 | 0.00 | 0.28 | 0.10 | 80 | 1013.9 |
| 20260905164815 | 27 | 191 | 1.6 | 8.0 | 0.00 | 0.28 | 0.10 | 78 | 1014.0 |
| 20260905164331 | 27 | 203 | 1.6 | 8.0 | 0.00 | 0.28 | 0.10 | 78 | 1014.1 |
| 20260905163806 | 27 | 245 | 1.6 | 12.9 | 0.03 | 0.28 | 0.10 | 78 | 1014.0 |
| 20260905163303 | 27 | 219 | 3.2 | 12.9 | 0.03 | 0.28 | 0.10 | 77 | 1014.1 |
| 20260905162757 | 27 | 118 | 1.6 | 11.3 | 0.03 | 0.28 | 0.10 | 76 | 1014.1 |
| 20260905161258 | 28 | 213 | 0.0 | 17.7 | 0.03 | 0.28 | 0.10 | 72 | 1014.3 |
| 20260905160811 | 29 | 67 | 3.2 | 17.7 | 0.03 | 0.28 | 0.10 | 71 | 1014.4 |
| 20260905160327 | 30 | 256 | 1.6 | 12.9 | 0.03 | 0.28 | 0.10 | 70 | 1014.2 |
| 20260905155802 | 30 | 341 | 0.0 | 4.8 | 0.03 | 0.28 | 0.10 | 70 | 1014.2 |
| 20260905155317 | 30 | 74 | 1.6 | 4.8 | 0.03 | 0.28 | 0.10 | 71 | 1014.2 |
| 20260905154832 | 31 | 88 | 1.6 | 4.8 | 0.03 | 0.28 | 0.10 | 71 | 1014.0 |
| 20260905154328 | 31 | 24 | 0.0 | 11.3 | 0.03 | 0.28 | 0.10 | 71 | 1013.9 |
| 20260905153804 | 31 | 101 | 1.6 | 11.3 | 0.00 | 0.25 | 0.08 | 71 | 1013.8 |
| 20260905153300 | 31 | 277 | 1.6 | 9.7 | 0.00 | 0.25 | 0.08 | 72 | 1013.8 |
| 20260905152817 | 30 | 92 | 1.6 | 6.4 | 0.00 | 0.25 | 0.08 | 72 | 1013.8 |
| 20260905152314 | 31 | 55 | 1.6 | 6.4 | 0.00 | 0.25 | 0.08 | 72 | 1013.7 |
| 20260905151811 | 30 | 61 | 1.6 | 6.4 | 0.00 | 0.28 | 0.08 | 72 | 1013.9 |
| 20260905151307 | 30 | 11 | 0.0 | 3.2 | 0.00 | 0.28 | 0.08 | 72 | 1013.7 |
| 20260905150307 | 30 | 14 | 0.0 | 6.4 | 0.00 | 0.28 | 0.08 | 72 | 1013.7 |
| 20260905145824 | 30 | 326 | 0.0 | 4.8 | 0.00 | 0.28 | 0.08 | 73 | 1013.7 |
| 20260905145317 | 30 | 16 | 1.6 | 4.8 | 0.00 | 0.28 | 0.08 | 73 | 1013.5 |
| 20260905144814 | 30 | 278 | 0.0 | 3.2 | 0.00 | 0.28 | 0.08 | 72 | 1013.7 |
| 20260905144310 | 30 | 308 | 0.0 | 3.2 | 0.00 | 0.28 | 0.08 | 74 | 1013.6 |
| 20260905143828 | 30 | 319 | 0.0 | 4.8 | 0.00 | 0.28 | 0.08 | 75 | 1013.6 |
| 20260905143302 | 29 | 296 | 0.0 | 4.8 | 0.00 | 0.28 | 0.08 | 75 | 1013.6 |
| 20260905142817 | 28 | 301 | 1.6 | 6.4 | 0.00 | 0.28 | 0.08 | 76 | 1013.5 |
| 20260905142330 | 28 | 296 | 3.2 | 6.4 | 0.03 | 0.28 | 0.08 | 78 | 1013.7 |
| 20260905141806 | 28 | 340 | 0.0 | 0.0 | 0.03 | 0.28 | 0.08 | 80 | 1013.7 |
| 20260905141303 | 27 | 71 | 0.0 | 0.0 | 0.03 | 0.28 | 0.08 | 81 | 1013.7 |
| 20260905140820 | 27 | 355 | 0.0 | 0.0 | 0.03 | 0.28 | 0.08 | 81 | 1013.6 |
| 20260905140335 | 27 | 63 | 0.0 | 0.0 | 0.03 | 0.28 | 0.08 | 82 | 1013.7 |
| 20260905135808 | 27 | 63 | 0.0 | 0.0 | 0.03 | 0.28 | 0.08 | 83 | 1013.4 |
| 20260905135306 | 27 | 63 | 0.0 | 0.0 | 0.03 | 0.28 | 0.08 | 83 | 1013.5 |
| 20260905134758 | 27 | 63 | 0.0 | 0.0 | 0.03 | 0.28 | 0.08 | 83 | 1013.6 |
| 20260905134309 | 27 | 63 | 0.0 | 0.0 | 0.03 | 0.28 | 0.08 | 83 | 1013.5 |
| 20260905133806 | 27 | 63 | 0.0 | 0.0 | 0.03 | 0.28 | 0.08 | 83 | 1013.6 |
| 20260905133322 | 27 | 63 | 0.0 | 0.0 | 0.03 | 0.28 | 0.08 | 83 | 1013.6 |
| 20260905132838 | 26 | 63 | 0.0 | 0.0 | 0.03 | 0.28 | 0.08 | 83 | 1013.7 |
| 20260905132311 | 26 | 63 | 0.0 | 1.6 | 0.00 | 0.25 | 0.05 | 83 | 1013.6 |
| 20260905131807 | 26 | 63 | 0.0 | 1.6 | 0.00 | 0.25 | 0.05 | 82 | 1013.6 |
| 20260905131305 | 26 | 63 | 0.0 | 1.6 | 0.00 | 0.25 | 0.05 | 83 | 1013.7 |
| 20260905130821 | 26 | 63 | 0.0 | 1.6 | 0.00 | 0.25 | 0.05 | 82 | 1013.6 |
| 20260905130338 | 26 | 63 | 0.0 | 1.6 | 0.00 | 0.25 | 0.05 | 82 | 1013.6 |
| 20260905125813 | 26 | 264 | 0.0 | 0.0 | 0.00 | 0.25 | 0.05 | 83 | 1013.7 |
| 20260905125310 | 26 | 264 | 0.0 | 0.0 | 0.00 | 0.25 | 0.05 | 83 | 1013.6 |
| 20260905124806 | 26 | 264 | 0.0 | 0.0 | 0.00 | 0.25 | 0.05 | 84 | 1013.4 |
| 20260905124300 | 26 | 264 | 0.0 | 0.0 | 0.00 | 0.25 | 0.05 | 84 | 1013.5 |
| 20260905123817 | 26 | 264 | 0.0 | 0.0 | 0.00 | 0.25 | 0.05 | 84 | 1013.4 |
| 20260905123313 | 26 | 264 | 0.0 | 0.0 | 0.00 | 0.25 | 0.05 | 84 | 1013.4 |
| 20260905122810 | 26 | 264 | 0.0 | 0.0 | 0.00 | 0.25 | 0.05 | 84 | 1013.4 |
| 20260905122327 | 26 | 264 | 0.0 | 0.0 | 0.00 | 0.25 | 0.05 | 85 | 1013.4 |
| 20260905121802 | 26 | 264 | 0.0 | 0.0 | 0.00 | 0.28 | 0.05 | 85 | 1013.5 |
| 20260905121300 | 25 | 264 | 0.0 | 0.0 | 0.00 | 0.28 | 0.05 | 84 | 1013.4 |
| 20260905120815 | 25 | 264 | 0.0 | 0.0 | 0.00 | 0.28 | 0.05 | 84 | 1013.4 |
| 20260905120310 | 25 | 264 | 0.0 | 0.0 | 0.00 | 0.28 | 0.05 | 84 | 1013.4 |
| 20260905115806 | 25 | 264 | 0.0 | 0.0 | 0.00 | 0.28 | 0.05 | 84 | 1013.4 |
| 20260905115300 | 25 | 264 | 0.0 | 0.0 | 0.00 | 0.28 | 0.05 | 84 | 1013.3 |
| 20260905114815 | 25 | 264 | 0.0 | 0.0 | 0.00 | 0.28 | 0.05 | 84 | 1013.2 |
| 20260905114310 | 25 | 264 | 0.0 | 0.0 | 0.00 | 0.28 | 0.05 | 84 | 1013.2 |
| 20260905113825 | 25 | 264 | 0.0 | 0.0 | 0.03 | 0.28 | 0.05 | 84 | 1013.2 |
| 20260905113259 | 25 | 264 | 0.0 | 0.0 | 0.03 | 0.28 | 0.05 | 83 | 1013.1 |
| 20260905112817 | 25 | 264 | 0.0 | 0.0 | 0.03 | 0.28 | 0.05 | 83 | 1012.9 |
| 20260905112332 | 25 | 264 | 0.0 | 0.0 | 0.03 | 0.28 | 0.05 | 83 | 1012.7 |
| 20260905111809 | 25 | 264 | 0.0 | 0.0 | 0.03 | 0.28 | 0.05 | 83 | 1012.7 |
| 20260905111304 | 26 | 264 | 0.0 | 0.0 | 0.03 | 0.28 | 0.05 | 83 | 1012.5 |
| 20260905110801 | 26 | 264 | 0.0 | 0.0 | 0.03 | 0.28 | 0.05 | 83 | 1012.5 |
| 20260905110317 | 26 | 264 | 0.0 | 0.0 | 0.03 | 0.28 | 0.05 | 82 | 1012.4 |
| 20260905105328 | 26 | 264 | 0.0 | 0.0 | 0.03 | 0.28 | 0.05 | 82 | 1012.5 |
| 20260905104824 | 26 | 264 | 0.0 | 0.0 | 0.03 | 0.28 | 0.05 | 82 | 1012.4 |
| 20260905104258 | 26 | 264 | 0.0 | 0.0 | 0.03 | 0.28 | 0.05 | 82 | 1012.3 |
| 20260905103842 | 26 | 264 | 0.0 | 0.0 | 0.00 | 0.25 | 0.03 | 82 | 1012.4 |
| 20260905103339 | 26 | 264 | 0.0 | 0.0 | 0.00 | 0.25 | 0.03 | 82 | 1012.3 |
| 20260905102814 | 26 | 264 | 0.0 | 0.0 | 0.00 | 0.25 | 0.03 | 82 | 1012.3 |
| 20260905102329 | 26 | 264 | 0.0 | 0.0 | 0.00 | 0.25 | 0.03 | 82 | 1012.4 |
| 20260905101300 | 26 | 264 | 0.0 | 0.0 | 0.00 | 0.25 | 0.03 | 82 | 1012.4 |
| 20260905100758 | 26 | 264 | 0.0 | 0.0 | 0.00 | 0.25 | 0.03 | 82 | 1012.4 |
| 20260905100314 | 26 | 264 | 0.0 | 0.0 | 0.00 | 0.25 | 0.03 | 81 | 1012.5 |
| 20260905095831 | 26 | 264 | 0.0 | 0.0 | 0.00 | 0.25 | 0.03 | 81 | 1012.6 |
| 20260905095306 | 26 | 264 | 0.0 | 1.6 | 0.00 | 0.25 | 0.03 | 81 | 1012.7 |
| 20260905094823 | 26 | 264 | 0.0 | 1.6 | 0.00 | 0.25 | 0.03 | 81 | 1012.7 |
| 20260905094319 | 26 | 264 | 0.0 | 0.0 | 0.00 | 0.25 | 0.03 | 82 | 1012.7 |
| 20260905093834 | 26 | 264 | 0.0 | 0.0 | 0.00 | 0.25 | 0.03 | 82 | 1012.6 |
| 20260905093310 | 26 | 264 | 0.0 | 0.0 | 0.00 | 0.25 | 0.03 | 82 | 1012.6 |
| 20260905092823 | 26 | 264 | 0.0 | 0.0 | 0.00 | 0.25 | 0.03 | 81 | 1012.7 |
| 20260905092300 | 26 | 264 | 0.0 | 0.0 | 0.00 | 0.25 | 0.03 | 81 | 1012.6 |
| 20260905091810 | 26 | 264 | 0.0 | 0.0 | 0.00 | 0.25 | 0.03 | 81 | 1012.6 |
| 20260905091305 | 26 | 264 | 0.0 | 0.0 | 0.00 | 0.25 | 0.03 | 81 | 1012.6 |
| 20260905090759 | 26 | 264 | 0.0 | 0.0 | 0.00 | 0.25 | 0.03 | 81 | 1012.6 |
| 20260905090316 | 26 | 264 | 0.0 | 0.0 | 0.00 | 0.25 | 0.03 | 81 | 1012.7 |
| 20260905085812 | 26 | 264 | 0.0 | 0.0 | 0.00 | 0.25 | 0.03 | 81 | 1012.5 |
| 20260905085309 | 26 | 264 | 0.0 | 0.0 | 0.03 | 0.25 | 0.03 | 80 | 1012.3 |
| 20260905084825 | 26 | 264 | 0.0 | 1.6 | 0.03 | 0.25 | 0.03 | 80 | 1012.4 |
| 20260905084300 | 26 | 264 | 0.0 | 1.6 | 0.03 | 0.25 | 0.03 | 80 | 1012.5 |
| 20260905083818 | 26 | 264 | 0.0 | 0.0 | 0.03 | 0.25 | 0.03 | 80 | 1012.6 |
| 20260905083335 | 26 | 264 | 0.0 | 1.6 | 0.03 | 0.25 | 0.03 | 80 | 1012.6 |
| 20260905082809 | 26 | 264 | 0.0 | 1.6 | 0.03 | 0.25 | 0.03 | 80 | 1012.6 |
| 20260905082307 | 26 | 264 | 0.0 | 0.0 | 0.03 | 0.25 | 0.03 | 81 | 1012.5 |
| 20260905081801 | 26 | 264 | 0.0 | 0.0 | 0.03 | 0.25 | 0.03 | 81 | 1012.3 |
| 20260905081318 | 26 | 264 | 0.0 | 0.0 | 0.03 | 0.25 | 0.03 | 81 | 1012.2 |
| 20260905080832 | 26 | 264 | 0.0 | 1.6 | 0.03 | 0.25 | 0.03 | 81 | 1012.2 |
| 20260905080307 | 26 | 264 | 0.0 | 0.0 | 0.03 | 0.25 | 0.03 | 81 | 1012.2 |
| 20260905075824 | 26 | 264 | 0.0 | 0.0 | 0.03 | 0.25 | 0.03 | 81 | 1012.1 |
| 20260905075341 | 26 | 264 | 0.0 | 1.6 | 0.00 | 0.23 | 0.00 | 81 | 1012.2 |
| 20260905074837 | 26 | 264 | 0.0 | 1.6 | 0.00 | 0.23 | 0.00 | 81 | 1012.2 |
| 20260905074312 | 26 | 257 | 0.0 | 4.8 | 0.00 | 0.23 | 0.00 | 81 | 1012.2 |
| 20260905073826 | 26 | 257 | 0.0 | 4.8 | 0.00 | 0.23 | 0.00 | 81 | 1012.4 |
| 20260905073321 | 26 | 257 | 0.0 | 0.0 | 0.00 | 0.23 | 0.00 | 81 | 1012.4 |
| 20260905072831 | 26 | 257 | 0.0 | 0.0 | 0.00 | 0.23 | 0.00 | 81 | 1012.4 |
| 20260905072306 | 26 | 257 | 0.0 | 0.0 | 0.00 | 0.23 | 0.00 | 81 | 1012.4 |
| 20260905071801 | 26 | 257 | 0.0 | 1.6 | 0.00 | 0.23 | 0.23 | 81 | 1012.4 |
| 20260905071318 | 26 | 257 | 0.0 | 1.6 | 0.00 | 0.23 | 0.23 | 81 | 1012.4 |
| 20260905070808 | 26 | 257 | 0.0 | 0.0 | 0.00 | 0.23 | 0.23 | 81 | 1012.3 |
| 20260905065839 | 26 | 257 | 0.0 | 0.0 | 0.00 | 0.23 | 0.23 | 82 | 1012.2 |
| 20260905065315 | 26 | 257 | 0.0 | 1.6 | 0.00 | 0.23 | 0.23 | 82 | 1012.3 |
| 20260905064812 | 26 | 257 | 0.0 | 1.6 | 0.00 | 0.23 | 0.23 | 82 | 1012.2 |
| 20260905064307 | 26 | 203 | 0.0 | 0.0 | 0.00 | 0.23 | 0.23 | 82 | 1012.3 |
| 20260905063804 | 26 | 203 | 0.0 | 0.0 | 0.00 | 0.23 | 0.23 | 82 | 1012.2 |
| 20260905063302 | 26 | 203 | 0.0 | 0.0 | 0.00 | 0.23 | 0.23 | 82 | 1012.2 |
| 20260905062759 | 26 | 203 | 0.0 | 0.0 | 0.00 | 0.23 | 0.23 | 81 | 1012.1 |
| 20260905062316 | 26 | 203 | 0.0 | 0.0 | 0.00 | 0.23 | 0.23 | 81 | 1012.2 |
| 20260905061814 | 26 | 203 | 0.0 | 0.0 | 0.00 | 0.23 | 0.23 | 81 | 1012.4 |
| 20260905061309 | 26 | 203 | 0.0 | 1.6 | 0.00 | 0.23 | 0.23 | 81 | 1012.3 |
| 20260905060852 | 26 | 203 | 0.0 | 1.6 | 0.03 | 0.23 | 0.23 | 81 | 1012.4 |
| 20260905060327 | 26 | 203 | 0.0 | 0.0 | 0.03 | 0.23 | 0.23 | 81 | 1012.4 |
| 20260905055803 | 27 | 203 | 0.0 | 0.0 | 0.03 | 0.23 | 0.23 | 81 | 1012.4 |
| 20260905055300 | 27 | 203 | 0.0 | 3.2 | 0.03 | 0.23 | 0.23 | 81 | 1012.5 |
| 20260905054816 | 27 | 203 | 0.0 | 3.2 | 0.03 | 0.23 | 0.23 | 81 | 1012.5 |
| 20260905054314 | 27 | 196 | 0.0 | 0.0 | 0.03 | 0.23 | 0.23 | 81 | 1012.5 |
| 20260905053314 | 27 | 196 | 0.0 | 4.8 | 0.03 | 0.23 | 0.23 | 80 | 1012.5 |
| 20260905052810 | 27 | 189 | 0.0 | 1.6 | 0.03 | 0.23 | 0.23 | 80 | 1012.5 |
| 20260905052306 | 27 | 189 | 0.0 | 1.6 | 0.03 | 0.23 | 0.23 | 80 | 1012.6 |
| 20260905051801 | 27 | 189 | 0.0 | 1.6 | 0.03 | 0.25 | 0.23 | 79 | 1012.7 |
| 20260905051317 | 27 | 189 | 0.0 | 0.0 | 0.03 | 0.25 | 0.23 | 79 | 1012.7 |
| 20260905050814 | 27 | 189 | 0.0 | 0.0 | 0.00 | 0.23 | 0.20 | 79 | 1012.7 |
| 20260905050330 | 27 | 189 | 0.0 | 0.0 | 0.00 | 0.23 | 0.20 | 79 | 1012.7 |
| 20260905045822 | 27 | 189 | 0.0 | 0.0 | 0.00 | 0.23 | 0.20 | 79 | 1012.7 |
| 20260905045317 | 27 | 189 | 0.0 | 0.0 | 0.00 | 0.23 | 0.20 | 79 | 1012.6 |
| 20260905044814 | 27 | 189 | 0.0 | 0.0 | 0.00 | 0.23 | 0.20 | 78 | 1012.6 |
| 20260905044330 | 27 | 189 | 0.0 | 0.0 | 0.00 | 0.23 | 0.20 | 78 | 1012.7 |
| 20260905043806 | 27 | 189 | 0.0 | 0.0 | 0.00 | 0.23 | 0.20 | 78 | 1012.6 |
| 20260905043303 | 27 | 189 | 0.0 | 3.2 | 0.00 | 0.23 | 0.20 | 78 | 1012.7 |
| 20260905042800 | 27 | 189 | 0.0 | 3.2 | 0.00 | 0.23 | 0.20 | 78 | 1012.7 |
| 20260905042317 | 27 | 189 | 0.0 | 1.6 | 0.00 | 0.23 | 0.20 | 78 | 1012.7 |
| 20260905041814 | 27 | 189 | 0.0 | 0.0 | 0.00 | 0.23 | 0.20 | 77 | 1012.8 |
| 20260905041328 | 27 | 189 | 0.0 | 0.0 | 0.00 | 0.23 | 0.20 | 77 | 1012.8 |
| 20260905040824 | 27 | 189 | 0.0 | 0.0 | 0.00 | 0.23 | 0.20 | 77 | 1012.9 |
| 20260905040318 | 27 | 189 | 0.0 | 1.6 | 0.00 | 0.23 | 0.20 | 77 | 1013.0 |
| 20260905035813 | 27 | 189 | 0.0 | 3.2 | 0.00 | 0.23 | 0.20 | 77 | 1013.1 |
| 20260905035309 | 27 | 189 | 0.0 | 4.8 | 0.00 | 0.23 | 0.20 | 77 | 1013.1 |
| 20260905034806 | 27 | 160 | 0.0 | 4.8 | 0.00 | 0.23 | 0.20 | 77 | 1013.2 |
| 20260905034303 | 27 | 63 | 0.0 | 0.0 | 0.00 | 0.23 | 0.20 | 77 | 1013.1 |
| 20260905033837 | 27 | 63 | 0.0 | 0.0 | 0.03 | 0.23 | 0.20 | 76 | 1013.2 |
| 20260905033333 | 27 | 63 | 0.0 | 0.0 | 0.03 | 0.23 | 0.20 | 76 | 1013.2 |
| 20260905032808 | 27 | 63 | 0.0 | 0.0 | 0.03 | 0.23 | 0.20 | 76 | 1013.2 |
| 20260905032325 | 27 | 63 | 0.0 | 0.0 | 0.03 | 0.23 | 0.20 | 76 | 1013.2 |
| 20260905031842 | 27 | 63 | 0.0 | 0.0 | 0.03 | 0.23 | 0.20 | 75 | 1013.3 |
| 20260905031338 | 27 | 63 | 0.0 | 0.0 | 0.03 | 0.23 | 0.20 | 75 | 1013.3 |
| 20260905030813 | 27 | 63 | 0.0 | 0.0 | 0.03 | 0.23 | 0.20 | 75 | 1013.4 |
| 20260905030310 | 27 | 63 | 0.0 | 0.0 | 0.03 | 0.23 | 0.20 | 74 | 1013.4 |
| 20260905025807 | 27 | 63 | 0.0 | 0.0 | 0.03 | 0.23 | 0.20 | 74 | 1013.5 |
| 20260905025322 | 27 | 63 | 0.0 | 0.0 | 0.03 | 0.23 | 0.20 | 74 | 1013.5 |
| 20260905024838 | 27 | 63 | 0.0 | 0.0 | 0.03 | 0.23 | 0.20 | 74 | 1013.5 |
| 20260905024306 | 27 | 63 | 0.0 | 0.0 | 0.03 | 0.23 | 0.20 | 74 | 1013.6 |
| 20260905023803 | 27 | 63 | 0.0 | 0.0 | 0.00 | 0.20 | 0.18 | 74 | 1013.5 |
| 20260905023258 | 27 | 63 | 0.0 | 0.0 | 0.00 | 0.20 | 0.18 | 74 | 1013.5 |
| 20260905022816 | 28 | 63 | 0.0 | 0.0 | 0.00 | 0.20 | 0.18 | 74 | 1013.5 |
| 20260905022313 | 28 | 63 | 0.0 | 0.0 | 0.00 | 0.20 | 0.18 | 74 | 1013.4 |
| 20260905021830 | 28 | 63 | 0.0 | 3.2 | 0.00 | 0.20 | 0.18 | 74 | 1013.4 |
| 20260905021324 | 28 | 63 | 0.0 | 3.2 | 0.00 | 0.20 | 0.18 | 74 | 1013.3 |
| 20260905020821 | 28 | 63 | 0.0 | 3.2 | 0.00 | 0.20 | 0.18 | 74 | 1013.2 |
| 20260905020317 | 28 | 63 | 1.6 | 3.2 | 0.00 | 0.20 | 0.18 | 74 | 1013.2 |
| 20260905015814 | 28 | 57 | 0.0 | 3.2 | 0.00 | 0.20 | 0.18 | 75 | 1013.3 |
| 20260905015311 | 28 | 38 | 0.0 | 0.0 | 0.00 | 0.20 | 0.18 | 75 | 1013.2 |
| 20260905014808 | 28 | 38 | 0.0 | 1.6 | 0.00 | 0.20 | 0.18 | 75 | 1013.1 |
| 20260905014305 | 28 | 38 | 0.0 | 1.6 | 0.00 | 0.20 | 0.18 | 75 | 1013.1 |
| 20260905013821 | 28 | 38 | 0.0 | 1.6 | 0.00 | 0.20 | 0.18 | 75 | 1013.1 |
| 20260905013339 | 28 | 38 | 0.0 | 1.6 | 0.00 | 0.20 | 0.18 | 76 | 1013.0 |
| 20260905012813 | 28 | 38 | 0.0 | 1.6 | 0.00 | 0.20 | 0.18 | 76 | 1013.0 |
| 20260905012308 | 28 | 38 | 0.0 | 0.0 | 0.00 | 0.20 | 0.18 | 75 | 1013.0 |
| 20260905011804 | 28 | 38 | 0.0 | 0.0 | 0.00 | 0.20 | 0.18 | 75 | 1012.9 |
| 20260905011300 | 28 | 38 | 0.0 | 3.2 | 0.03 | 0.20 | 0.18 | 75 | 1013.1 |
| 20260905010816 | 28 | 38 | 0.0 | 3.2 | 0.03 | 0.20 | 0.18 | 75 | 1013.1 |
| 20260905010312 | 28 | 38 | 0.0 | 0.0 | 0.03 | 0.20 | 0.18 | 74 | 1013.1 |
| 20260905005810 | 28 | 38 | 0.0 | 0.0 | 0.03 | 0.20 | 0.18 | 74 | 1013.0 |
| 20260905005307 | 28 | 38 | 0.0 | 0.0 | 0.03 | 0.20 | 0.18 | 73 | 1013.0 |
| 20260905004802 | 28 | 38 | 0.0 | 1.6 | 0.03 | 0.20 | 0.18 | 73 | 1013.0 |
| 20260905004319 | 28 | 38 | 0.0 | 3.2 | 0.03 | 0.20 | 0.18 | 73 | 1013.0 |
| 20260905003814 | 28 | 38 | 0.0 | 3.2 | 0.03 | 0.20 | 0.18 | 72 | 1012.9 |
| 20260905003311 | 29 | 38 | 0.0 | 1.6 | 0.03 | 0.20 | 0.18 | 72 | 1012.8 |
| 20260905002805 | 29 | 38 | 0.0 | 1.6 | 0.03 | 0.20 | 0.18 | 72 | 1012.8 |
| 20260905002323 | 29 | 38 | 0.0 | 1.6 | 0.03 | 0.20 | 0.18 | 72 | 1012.9 |
| 20260905001800 | 29 | 38 | 0.0 | 1.6 | 0.03 | 0.20 | 0.18 | 72 | 1013.0 |
| 20260905001317 | 30 | 38 | 0.0 | 3.2 | 0.00 | 0.18 | 0.15 | 71 | 1013.0 |
| 20260905000812 | 30 | 38 | 0.0 | 3.2 | 0.00 | 0.18 | 0.15 | 71 | 1013.0 |
| 20260905000310 | 30 | 38 | 0.0 | 1.6 | 0.00 | 0.18 | 0.15 | 71 | 1013.0 |
| 20260904235908 | 30 | 38 | 0.0 | 3.2 | 0.00 | 0.18 | 0.15 | 70 | 1013.0 |
| 20260904235305 | 30 | 38 | 0.0 | 3.2 | 0.00 | 0.18 | 0.15 | 70 | 1013.0 |
| 20260904234305 | 30 | 85 | 0.0 | 6.4 | 0.00 | 0.18 | 0.15 | 69 | 1012.8 |
| 20260904233803 | 30 | 9 | 0.0 | 6.4 | 0.00 | 0.18 | 0.15 | 69 | 1012.7 |
| 20260904233300 | 31 | 355 | 0.0 | 1.6 | 0.00 | 0.18 | 0.15 | 69 | 1012.7 |
| 20260904232818 | 31 | 355 | 0.0 | 1.6 | 0.00 | 0.18 | 0.15 | 70 | 1012.6 |
| 20260904232314 | 30 | 14 | 0.0 | 1.6 | 0.00 | 0.18 | 0.15 | 70 | 1012.7 |
| 20260904231812 | 30 | 14 | 0.0 | 4.8 | 0.00 | 0.18 | 0.15 | 71 | 1012.7 |
| 20260904231328 | 30 | 14 | 1.6 | 4.8 | 0.03 | 0.18 | 0.15 | 70 | 1012.7 |
| 20260904230804 | 30 | 332 | 1.6 | 4.8 | 0.03 | 0.18 | 0.15 | 70 | 1012.8 |
| 20260904230300 | 30 | 87 | 0.0 | 4.8 | 0.03 | 0.18 | 0.15 | 70 | 1012.8 |
| 20260904225818 | 31 | 5 | 0.0 | 4.8 | 0.03 | 0.18 | 0.15 | 70 | 1012.8 |
| 20260904225313 | 31 | 350 | 1.6 | 4.8 | 0.03 | 0.18 | 0.15 | 68 | 1012.8 |
| 20260904224807 | 31 | 309 | 0.0 | 9.7 | 0.03 | 0.18 | 0.15 | 67 | 1012.7 |
| 20260904224304 | 32 | 309 | 1.6 | 9.7 | 0.03 | 0.18 | 0.15 | 67 | 1012.6 |
| 20260904223822 | 32 | 12 | 1.6 | 4.8 | 0.03 | 0.18 | 0.15 | 66 | 1012.6 |
| 20260904223339 | 32 | 5 | 0.0 | 4.8 | 0.03 | 0.18 | 0.15 | 67 | 1012.7 |
| 20260904222815 | 32 | 36 | 0.0 | 3.2 | 0.03 | 0.18 | 0.15 | 66 | 1012.6 |
| 20260904222312 | 32 | 17 | 0.0 | 3.2 | 0.03 | 0.18 | 0.15 | 66 | 1012.6 |
| 20260904221810 | 32 | 298 | 0.0 | 3.2 | 0.03 | 0.20 | 0.15 | 66 | 1012.6 |
| 20260904221307 | 32 | 47 | 0.0 | 3.2 | 0.00 | 0.18 | 0.13 | 66 | 1012.5 |
| 20260904220824 | 32 | 296 | 0.0 | 3.2 | 0.00 | 0.18 | 0.13 | 65 | 1012.5 |
| 20260904220319 | 32 | 10 | 0.0 | 3.2 | 0.00 | 0.18 | 0.13 | 66 | 1012.6 |
| 20260904215815 | 32 | 340 | 0.0 | 3.2 | 0.00 | 0.18 | 0.13 | 67 | 1012.5 |
| 20260904215310 | 32 | 303 | 0.0 | 4.8 | 0.00 | 0.18 | 0.13 | 67 | 1012.7 |
| 20260904214807 | 32 | 310 | 0.0 | 6.4 | 0.00 | 0.18 | 0.13 | 66 | 1012.7 |
| 20260904214304 | 32 | 355 | 0.0 | 6.4 | 0.00 | 0.18 | 0.13 | 65 | 1012.6 |
| 20260904213823 | 32 | 17 | 0.0 | 3.2 | 0.00 | 0.18 | 0.13 | 66 | 1012.5 |
| 20260904212807 | 32 | 21 | 0.0 | 4.8 | 0.00 | 0.18 | 0.13 | 66 | 1012.7 |
| 20260904212325 | 32 | 26 | 0.0 | 4.8 | 0.03 | 0.18 | 0.13 | 67 | 1012.8 |
| 20260904211802 | 32 | 10 | 0.0 | 9.7 | 0.03 | 0.18 | 0.13 | 65 | 1012.8 |
| 20260904211315 | 32 | 289 | 1.6 | 11.3 | 0.03 | 0.18 | 0.13 | 66 | 1012.7 |
| 20260904210812 | 32 | 39 | 1.6 | 11.3 | 0.03 | 0.18 | 0.13 | 65 | 1012.8 |
| 20260904210307 | 32 | 57 | 0.0 | 3.2 | 0.03 | 0.18 | 0.13 | 66 | 1012.7 |
| 20260904205804 | 32 | 61 | 0.0 | 3.2 | 0.03 | 0.18 | 0.13 | 65 | 1012.7 |
| 20260904205310 | 32 | 295 | 0.0 | 3.2 | 0.03 | 0.18 | 0.13 | 66 | 1012.6 |
| 20260904204807 | 32 | 329 | 1.6 | 6.4 | 0.03 | 0.18 | 0.13 | 66 | 1012.7 |
| 20260904204303 | 32 | 14 | 0.0 | 6.4 | 0.03 | 0.18 | 0.13 | 66 | 1012.7 |
| 20260904203800 | 32 | 5 | 0.0 | 4.8 | 0.03 | 0.18 | 0.13 | 67 | 1012.7 |
| 20260904203316 | 32 | 39 | 0.0 | 4.8 | 0.03 | 0.18 | 0.13 | 67 | 1012.7 |
| 20260904202812 | 32 | 50 | 1.6 | 8.0 | 0.03 | 0.18 | 0.13 | 67 | 1012.8 |
| 20260904202329 | 32 | 345 | 1.6 | 8.0 | 0.00 | 0.15 | 0.10 | 68 | 1012.9 |
| 20260904201804 | 32 | 66 | 0.0 | 8.0 | 0.00 | 0.15 | 0.10 | 67 | 1012.9 |
| 20260904201321 | 32 | 28 | 1.6 | 8.0 | 0.00 | 0.15 | 0.10 | 68 | 1012.9 |
| 20260904200839 | 32 | 19 | 1.6 | 8.0 | 0.00 | 0.15 | 0.10 | 67 | 1013.0 |
| 20260904200313 | 32 | 24 | 1.6 | 6.4 | 0.00 | 0.15 | 0.10 | 68 | 1013.1 |
| 20260904195810 | 32 | 360 | 0.0 | 8.0 | 0.00 | 0.15 | 0.10 | 67 | 1013.1 |
| 20260904194833 | 31 | 30 | 0.0 | 6.4 | 0.00 | 0.15 | 0.10 | 69 | 1013.1 |
| 20260904194309 | 31 | 351 | 1.6 | 8.0 | 0.00 | 0.15 | 0.10 | 67 | 1013.2 |
| 20260904193806 | 31 | 42 | 1.6 | 8.0 | 0.00 | 0.15 | 0.10 | 69 | 1013.3 |
| 20260904193301 | 31 | 69 | 0.0 | 9.7 | 0.00 | 0.15 | 0.10 | 71 | 1013.4 |
| 20260904192816 | 31 | 340 | 1.6 | 11.3 | 0.03 | 0.15 | 0.10 | 72 | 1013.4 |
| 20260904192400 | 30 | 22 | 0.0 | 11.3 | 0.03 | 0.15 | 0.10 | 72 | 1013.6 |
| 20260904191813 | 30 | 40 | 1.6 | 6.4 | 0.03 | 0.15 | 0.10 | 72 | 1013.7 |
| 20260904191309 | 30 | 125 | 1.6 | 8.0 | 0.03 | 0.15 | 0.10 | 72 | 1013.8 |
| 20260904190826 | 30 | 348 | 3.2 | 8.0 | 0.03 | 0.15 | 0.10 | 72 | 1013.8 |
| 20260904190301 | 30 | 87 | 1.6 | 9.7 | 0.03 | 0.15 | 0.10 | 71 | 1014.0 |
| 20260904185818 | 30 | 327 | 1.6 | 11.3 | 0.03 | 0.15 | 0.10 | 72 | 1014.1 |
| 20260904185316 | 30 | 346 | 3.2 | 11.3 | 0.03 | 0.15 | 0.10 | 73 | 1014.1 |
| 20260904184811 | 30 | 39 | 0.0 | 6.4 | 0.03 | 0.15 | 0.10 | 73 | 1014.4 |
| 20260904184307 | 30 | 5 | 0.0 | 6.4 | 0.03 | 0.15 | 0.10 | 73 | 1014.4 |
| 20260904183804 | 30 | 32 | 0.0 | 4.8 | 0.03 | 0.15 | 0.10 | 71 | 1014.5 |